Location: Unspecified
(0.0000°N, 0.0000°E)
Time: 16:12:42
(UTC+01:00)

Haruka - Visible Passes

Search period start: 04 March 2015 00:00
Search period end: 14 March 2015 00:00
Orbit: 544 x 21230 km, 31.3° (Epoch: 02 March)

Date Brightness Start Highest point End Pass type
(mag) Time Alt. Az. Time Alt. Az. Time Alt. Az.
04 Mar 6.6 02:51:33 47° ENE 02:51:33 47° ENE 04:10:10 10° ESE visible
05 Mar 6.0 03:56:57 73° NNW 03:59:22 79° NE 07:39:15 10° ESE visible
06 Mar 6.3 05:02:22 44° WNW 05:13:46 77° SSW 09:45:52 10° ESE visible
07 Mar 6.9 06:07:46 18° W 06:37:27 62° SSW 11:16:39 10° ESE visible
09 Mar 7.1 02:02:13 31° E 02:02:13 31° E 02:35:26 10° ESE visible
10 Mar 6.4 03:07:37 65° ENE 03:07:37 65° ENE 05:18:16 10° SE visible
11 Mar 6.1 04:13:02 71° WNW 04:16:58 83° SSW 08:29:38 10° ESE visible
12 Mar 6.6 05:18:26 36° W 05:34:57 65° SSW 10:15:25 10° ESE visible
13 Mar 7.2 06:23:50 12° W 07:09:31 54° SSW 11:39:01 10° E visible
